Satellite-Ground Cal/Val Region Overpasses Predictions

Prediction of Satellite NPP Overpassing Cal/Val Region: PacNW

Region Location: (Latitude: 10.00, Longitude: 139.50) to (Latitude: 22.70, Longitude: 165.60).

Table of predicted overpasses for the next 14.0 days since TLE Epoch: 5/4/2019
Interval Starting Time Starting Location Ending Time Ending Location
1 05/04/2019 02:26:24 ( 10.00, 163.07) 05/04/2019 02:30:00 ( 22.69, 160.05)
2 05/04/2019 14:58:18 ( 22.67, 160.30) 05/04/2019 15:01:53 ( 10.05, 157.30)
3 05/05/2019 02:10:05 ( 19.51, 165.59) 05/05/2019 02:10:59 ( 22.67, 164.81)
4 05/05/2019 03:48:54 ( 10.05, 142.44) 05/05/2019 03:52:24 ( 22.38, 139.51)
5 05/05/2019 14:39:17 ( 22.68, 165.06) 05/05/2019 14:42:53 ( 10.00, 162.04)
6 05/05/2019 16:20:47 ( 22.68, 139.68) 05/05/2019 16:20:59 ( 21.98, 139.51)
7 05/06/2019 03:29:52 ( 10.04, 147.20) 05/06/2019 03:33:27 ( 22.67, 144.20)
8 05/06/2019 16:01:45 ( 22.69, 144.44) 05/06/2019 16:05:21 ( 10.01, 141.43)
9 05/07/2019 03:10:51 ( 10.03, 151.96) 05/07/2019 03:14:26 ( 22.65, 148.95)
10 05/07/2019 15:42:45 ( 22.65, 149.19) 05/07/2019 15:46:20 ( 10.03, 146.18)
11 05/08/2019 02:51:50 ( 10.02, 156.72) 05/08/2019 02:55:25 ( 22.64, 153.71)
12 05/08/2019 15:23:43 ( 22.66, 153.95) 05/08/2019 15:27:18 ( 10.04, 150.94)
13 05/09/2019 02:32:48 ( 10.01, 161.47) 05/09/2019 02:36:24 ( 22.69, 158.46)
14 05/09/2019 15:04:42 ( 22.67, 158.70) 05/09/2019 15:08:17 ( 10.05, 155.70)
15 05/10/2019 02:14:34 ( 12.76, 165.60) 05/10/2019 02:17:23 ( 22.68, 163.21)
16 05/10/2019 03:55:17 ( 10.00, 140.86) 05/10/2019 03:56:56 ( 15.82, 139.51)
17 05/10/2019 14:45:40 ( 22.68, 163.46) 05/10/2019 14:49:16 ( 10.00, 160.45)
18 05/11/2019 03:36:16 ( 10.05, 145.60) 05/11/2019 03:39:51 ( 22.67, 142.60)
19 05/11/2019 14:29:46 ( 11.72, 165.60) 05/11/2019 14:30:15 ( 10.01, 165.20)
20 05/11/2019 16:08:09 ( 22.69, 142.85) 05/11/2019 16:11:45 ( 10.01, 139.83)
21 05/12/2019 03:17:15 ( 10.04, 150.36) 05/12/2019 03:20:50 ( 22.66, 147.36)
22 05/12/2019 15:49:07 ( 22.70, 147.60) 05/12/2019 15:52:43 ( 10.02, 144.59)
23 05/13/2019 02:58:13 ( 10.03, 155.12) 05/13/2019 03:01:48 ( 22.65, 152.11)
24 05/13/2019 15:30:07 ( 22.65, 152.35) 05/13/2019 15:33:42 ( 10.03, 149.35)
25 05/14/2019 02:39:12 ( 10.02, 159.88) 05/14/2019 02:42:47 ( 22.64, 156.87)
26 05/14/2019 15:11:05 ( 22.66, 157.11) 05/14/2019 15:14:40 ( 10.04, 154.10)
27 05/15/2019 02:20:10 ( 10.01, 164.63) 05/15/2019 02:23:46 ( 22.69, 161.62)
28 05/15/2019 14:52:04 ( 22.67, 161.86) 05/15/2019 14:55:39 ( 10.05, 158.86)
29 05/16/2019 03:42:39 ( 10.00, 144.02) 05/16/2019 03:46:15 ( 22.69, 141.00)
30 05/16/2019 14:34:14 ( 18.52, 165.60) 05/16/2019 14:36:39 ( 10.01, 163.61)
31 05/16/2019 16:14:33 ( 22.68, 141.25) 05/16/2019 16:16:35 ( 15.52, 139.51)
32 05/17/2019 03:23:38 ( 10.05, 148.76) 05/17/2019 03:27:13 ( 22.68, 145.76)


NCC Satellite Cal/Val Overpasses Prediction Service
